| time (UTC) | temp C | wind direction | speed KPH | gust KPH | rain 1hr cm | rain 24hr cm | rain mn cm | humidity % | barometer mb |
| 20260906113043 | 26 | 0 | 0.0 | 0.0 | 0.03 | 0.41 | 0.41 | 98 | 1011.2 |
| 20260906111548 | 26 | 0 | 0.0 | 0.0 | 0.03 | 0.41 | 0.41 | 97 | 1011.1 |
| 20260906110042 | 26 | 0 | 0.0 | 0.0 | 0.03 | 0.41 | 0.41 | 97 | 1011.0 |
| 20260906104543 | 26 | 0 | 0.0 | 0.0 | 0.03 | 0.41 | 0.41 | 97 | 1010.8 |
| 20260906103050 | 26 | 0 | 0.0 | 0.0 | 0.00 | 0.38 | 0.38 | 97 | 1010.7 |
| 20260906101546 | 26 | 0 | 0.0 | 0.0 | 0.00 | 0.38 | 0.38 | 97 | 1010.8 |
| 20260906100055 | 26 | 0 | 0.0 | 0.0 | 0.00 | 0.38 | 0.38 | 97 | 1010.6 |
| 20260906094548 | 26 | 0 | 0.0 | 0.0 | 0.00 | 0.38 | 0.38 | 97 | 1010.3 |
| 20260906093043 | 26 | 0 | 0.0 | 0.0 | 0.00 | 0.38 | 0.38 | 97 | 1010.3 |
| 20260906091541 | 26 | 0 | 0.0 | 0.0 | 0.00 | 0.38 | 0.38 | 97 | 1010.2 |
| 20260906090043 | 26 | 0 | 0.0 | 0.0 | 0.00 | 0.38 | 0.38 | 97 | 1010.5 |
| 20260906084551 | 27 | 0 | 0.0 | 0.0 | 0.00 | 0.38 | 0.38 | 97 | 1010.5 |
| 20260906083046 | 27 | 0 | 0.0 | 0.0 | 0.00 | 0.38 | 0.38 | 97 | 1010.4 |
| 20260906081543 | 27 | 0 | 0.0 | 0.0 | 0.00 | 0.38 | 0.38 | 96 | 1010.5 |
| 20260906080052 | 27 | 0 | 0.0 | 0.0 | 0.00 | 0.38 | 0.38 | 96 | 1010.7 |
| 20260906074549 | 27 | 0 | 0.0 | 0.0 | 0.00 | 0.38 | 0.38 | 96 | 1010.6 |
| 20260906073045 | 27 | 0 | 0.0 | 0.0 | 0.00 | 0.38 | 0.38 | 96 | 1010.7 |
| 20260906071546 | 27 | 0 | 0.0 | 0.0 | 0.00 | 0.38 | 0.38 | 96 | 1010.8 |
| 20260906070043 | 27 | 0 | 0.0 | 0.0 | 0.00 | 0.38 | 0.38 | 96 | 1010.7 |
| 20260906064543 | 27 | 0 | 0.0 | 0.0 | 0.00 | 0.38 | 0.38 | 96 | 1010.7 |
| 20260906063045 | 27 | 0 | 0.0 | 0.0 | 0.00 | 0.38 | 0.38 | 96 | 1010.8 |
| 20260906061549 | 27 | 0 | 0.0 | 0.0 | 0.00 | 0.38 | 0.38 | 95 | 1010.6 |
| 20260906060043 | 27 | 0 | 0.0 | 0.0 | 0.05 | 0.38 | 0.38 | 95 | 1010.7 |
| 20260906054600 | 27 | 0 | 0.0 | 0.0 | 0.18 | 0.38 | 0.38 | 95 | 1010.8 |
| 20260906053045 | 27 | 0 | 0.0 | 0.0 | 0.38 | 0.38 | 0.38 | 95 | 1011.0 |
| 20260906051544 | 28 | 0 | 0.0 | 0.0 | 0.36 | 0.36 | 0.36 | 95 | 1011.2 |
| 20260906050041 | 28 | 0 | 0.0 | 1.6 | 0.33 | 0.33 | 0.33 | 94 | 1011.4 |
| 20260906044539 | 28 | 0 | 0.0 | 3.2 | 0.18 | 0.18 | 0.18 | 94 | 1011.7 |
| 20260906043045 | 28 | 0 | 0.0 | 0.0 | 0.00 | 0.00 | 0.00 | 94 | 1011.8 |
| 20260906041545 | 28 | 0 | 0.0 | 0.0 | 0.00 | 0.00 | 0.00 | 94 | 1011.7 |
| 20260906040047 | 28 | 0 | 0.0 | 0.0 | 0.00 | 0.00 | 0.00 | 93 | 1011.9 |
| 20260906034548 | 28 | 0 | 0.0 | 1.6 | 0.00 | 0.00 | 0.00 | 93 | 1011.7 |
| 20260906033046 | 28 | 0 | 0.0 | 0.0 | 0.00 | 0.00 | 0.00 | 93 | 1012.0 |
| 20260906031604 | 28 | 0 | 0.0 | 0.0 | 0.00 | 0.00 | 0.00 | 93 | 1012.1 |
| 20260906030041 | 28 | 0 | 0.0 | 0.0 | 0.00 | 0.00 | 0.00 | 93 | 1012.0 |
| 20260906024555 | 28 | 0 | 0.0 | 1.6 | 0.00 | 0.00 | 0.00 | 93 | 1011.5 |
| 20260906023046 | 28 | 0 | 0.0 | 1.6 | 0.00 | 0.00 | 0.00 | 93 | 1011.0 |
| 20260906021542 | 28 | 219 | 0.0 | 3.2 | 0.00 | 0.00 | 0.00 | 92 | 1010.8 |
| 20260906020044 | 28 | 0 | 0.0 | 0.0 | 0.00 | 0.00 | 0.00 | 92 | 1011.3 |
| 20260906014547 | 29 | 0 | 0.0 | 0.0 | 0.00 | 0.00 | 0.00 | 92 | 1011.4 |
| 20260906013043 | 29 | 0 | 0.0 | 0.0 | 0.00 | 0.00 | 0.00 | 92 | 1011.6 |
| 20260906011542 | 29 | 0 | 0.0 | 1.6 | 0.00 | 0.00 | 0.00 | 91 | 1011.4 |
| 20260906010049 | 29 | 0 | 0.0 | 0.0 | 0.00 | 0.00 | 0.00 | 91 | 1011.4 |
| 20260906004543 | 29 | 0 | 0.0 | 0.0 | 0.00 | 0.00 | 0.00 | 90 | 1011.6 |
| 20260906003041 | 29 | 0 | 0.0 | 0.0 | 0.00 | 0.00 | 0.00 | 90 | 1011.8 |
| 20260906001543 | 29 | 0 | 0.0 | 0.0 | 0.00 | 0.00 | 0.00 | 89 | 1011.8 |
| 20260906000050 | 30 | 0 | 0.0 | 0.0 | 0.00 | 0.00 | 0.00 | 89 | 1011.9 |
| 20260905234551 | 30 | 0 | 0.0 | 1.6 | 0.00 | 0.00 | 0.00 | 88 | 1011.6 |
| 20260905233041 | 30 | 0 | 0.0 | 0.0 | 0.00 | 0.00 | 0.00 | 88 | 1011.7 |
| 20260905231541 | 30 | 0 | 0.0 | 1.6 | 0.00 | 0.00 | 0.00 | 87 | 1011.5 |
| 20260905230046 | 30 | 0 | 0.0 | 3.2 | 0.00 | 0.00 | 0.00 | 87 | 1011.2 |
| 20260905224543 | 30 | 0 | 0.0 | 3.2 | 0.00 | 0.00 | 0.00 | 87 | 1011.3 |
| 20260905223041 | 30 | 0 | 0.0 | 3.2 | 0.00 | 0.00 | 0.00 | 86 | 1011.4 |
| 20260905221539 | 30 | 0 | 0.0 | 3.2 | 0.00 | 0.00 | 0.00 | 86 | 1011.4 |
| 20260905220044 | 30 | 189 | 1.6 | 4.8 | 0.00 | 0.00 | 0.00 | 86 | 1011.5 |
| 20260905214543 | 30 | 0 | 0.0 | 3.2 | 0.00 | 0.00 | 0.00 | 85 | 1011.5 |
| 20260905213046 | 30 | 0 | 0.0 | 4.8 | 0.00 | 0.00 | 0.00 | 85 | 1011.4 |
| 20260905211600 | 31 | 180 | 0.0 | 4.8 | 0.00 | 0.00 | 0.00 | 86 | 1011.3 |
| 20260905210053 | 31 | 0 | 0.0 | 0.0 | 0.00 | 0.00 | 0.00 | 85 | 1011.3 |
| 20260905204543 | 31 | 123 | 0.0 | 6.4 | 0.00 | 0.00 | 0.00 | 84 | 1011.1 |
| 20260905203049 | 31 | 117 | 0.0 | 6.4 | 0.00 | 0.00 | 0.00 | 85 | 1010.9 |
| 20260905201550 | 31 | 133 | 1.6 | 3.2 | 0.00 | 0.00 | 0.00 | 85 | 1010.9 |
| 20260905200043 | 31 | 117 | 0.0 | 9.7 | 0.00 | 0.00 | 0.00 | 84 | 1011.0 |
| 20260905194542 | 31 | 111 | 3.2 | 9.7 | 0.00 | 0.00 | 0.00 | 84 | 1011.1 |
| 20260905193045 | 31 | 113 | 0.0 | 6.4 | 0.00 | 0.00 | 0.00 | 85 | 1011.2 |
| 20260905191542 | 31 | 134 | 1.6 | 11.3 | 0.00 | 0.00 | 0.00 | 85 | 1011.5 |
| 20260905190042 | 31 | 82 | 1.6 | 12.9 | 0.00 | 0.00 | 0.00 | 84 | 1011.8 |
| 20260905184545 | 31 | 0 | 1.6 | 9.7 | 0.00 | 0.00 | 0.00 | 84 | 1012.0 |
| 20260905183046 | 30 | 124 | 3.2 | 9.7 | 0.00 | 0.00 | 0.00 | 84 | 1012.4 |
| 20260905181542 | 30 | 148 | 0.0 | 4.8 | 0.00 | 0.00 | 0.00 | 85 | 1012.5 |
| 20260905180047 | 30 | 189 | 3.2 | 8.0 | 0.00 | 0.00 | 0.00 | 86 | 1012.7 |
| 20260905174545 | 30 | 171 | 4.8 | 12.9 | 0.00 | 0.00 | 0.00 | 87 | 1013.2 |
| 20260905173056 | 30 | 0 | 0.0 | 4.8 | 0.00 | 0.00 | 0.00 | 85 | 1013.5 |
| 20260905171541 | 30 | 0 | 0.0 | 8.0 | 0.00 | 0.00 | 0.00 | 84 | 1013.6 |
| 20260905170042 | 30 | 117 | 4.8 | 11.3 | 0.00 | 0.00 | 0.00 | 85 | 1013.7 |
| 20260905164540 | 30 | 96 | 6.4 | 11.3 | 0.00 | 0.00 | 0.00 | 86 | 1013.9 |
| 20260905163043 | 30 | 113 | 3.2 | 11.3 | 0.00 | 0.00 | 0.00 | 86 | 1014.1 |
| 20260905161543 | 30 | 0 | 1.6 | 8.0 | 0.00 | 0.00 | 0.00 | 88 | 1014.1 |
| 20260905160041 | 30 | 129 | 0.0 | 6.4 | 0.00 | 0.00 | 0.00 | 87 | 1014.3 |
| 20260905154544 | 30 | 0 | 0.0 | 0.0 | 0.00 | 0.00 | 0.00 | 87 | 1014.4 |
| 20260905153046 | 30 | 0 | 0.0 | 0.0 | 0.00 | 0.00 | 0.00 | 84 | 1014.4 |
| 20260905151548 | 30 | 0 | 0.0 | 0.0 | 0.00 | 0.00 | 0.00 | 85 | 1014.6 |
| 20260905150039 | 30 | 0 | 0.0 | 0.0 | 0.00 | 0.00 | 0.00 | 85 | 1014.6 |
| 20260905144540 | 30 | 0 | 0.0 | 0.0 | 0.00 | 0.00 | 0.00 | 88 | 1014.8 |
| 20260905143048 | 29 | 0 | 0.0 | 0.0 | 0.00 | 0.00 | 0.00 | 91 | 1014.6 |
| 20260905141542 | 28 | 0 | 0.0 | 0.0 | 0.00 | 0.00 | 0.00 | 93 | 1014.7 |
| 20260905140045 | 28 | 0 | 0.0 | 0.0 | 0.00 | 0.00 | 0.00 | 95 | 1014.6 |
| 20260905134554 | 27 | 0 | 0.0 | 0.0 | 0.00 | 0.00 | 0.00 | 95 | 1014.6 |
| 20260905133050 | 27 | 0 | 0.0 | 0.0 | 0.00 | 0.00 | 0.00 | 96 | 1014.6 |
| 20260905131543 | 27 | 0 | 0.0 | 0.0 | 0.00 | 0.00 | 0.00 | 95 | 1014.6 |
| 20260905130041 | 27 | 0 | 0.0 | 0.0 | 0.00 | 0.00 | 0.00 | 96 | 1014.5 |
| 20260905124543 | 27 | 0 | 0.0 | 0.0 | 0.00 | 0.00 | 0.00 | 97 | 1014.4 |
| 20260905123038 | 27 | 0 | 0.0 | 0.0 | 0.00 | 0.00 | 0.00 | 96 | 1014.4 |
| 20260905121541 | 27 | 0 | 0.0 | 0.0 | 0.00 | 0.00 | 0.00 | 96 | 1014.4 |
| 20260905120044 | 27 | 0 | 0.0 | 0.0 | 0.00 | 0.00 | 0.00 | 96 | 1014.4 |
| 20260905114539 | 26 | 0 | 0.0 | 0.0 | 0.00 | 0.00 | 0.00 | 96 | 1014.2 |